User: anonymous   Login
Location: Mount Kobau Star Party
(49.1167°N, 119.7333°W)
Time: 09:38:55
(UTC-07:00)
Language:

TSX-5 - Orbit

View from above orbital plane
View from above orbital plane
View from above satellite
View from above satellite

Ground track
Ground track

The orbit data is extracted from the following two-line orbital elements,

1 26374U 00030A   16206.16848670  .00001600  00000-0  14180-3 0  9994
2 26374  68.9312 190.5962 0657849 286.6730  66.3182 14.03580947810057
Epoch (UTC): 24 July 2016 04:02:37
Eccentricity: 0.0657849
inclination: 68.9312°
perigee height: 404 km
apogee height: 1359 km
right ascension of ascending node: 190.5962°
argument of perigee: 286.6730°
revolutions per day: 14.03580947
mean anomaly at epoch: 66.3182°
orbit number at epoch: 81005

The dashed part of the orbit path shows where the satellite is in the earth's shadow,  

DLR